Regional Weather Roundup
Issued by NWS Cleveland, OH

Home | Current Version | Previous Version | Graphics & Text | Print | Product List | Glossary On
Versions: 1 2 3 4 5 6 7 8 9 10 11 12 13 14 15 16 17 18 19 20 21 22 23 24 25 26 27 28 29 30 31 32 33 34 35 36 37 38 39 40 41 42 43 44 45 46 47 48 49 50
000
ASUS41 KCLE 202210
RWRCLE
OHIO REGIONAL WEATHER ROUNDUP
NATIONAL WEATHER SERVICE CLEVELAND, OH
600 PM EDT MON OCT 20 2014

NOTE: "FAIR" INDICATES FEW OR NO CLOUDS BELOW 12,000 FEET WITH NO
SIGNIFICANT WEATHER AND/OR OBSTRUCTIONS TO VISIBILITY.

OHZ001>008-015>018-024>027-034-035-043-044-202300-
   NORTHWEST OHIO

CITY           SKY/WX    TMP DP  RH WIND       PRES   REMARKS
DEFIANCE       CLOUDY    56  51  84 CALM      29.83R
FINDLAY        CLOUDY    55  51  86 SW7       29.82S
TOLEDO EXPRESS CLOUDY    54  50  86 CALM      29.82S
TOLEDO EXEC    CLOUDY    54  49  83 W5        29.83S
LIMA           CLOUDY    55  52  89 S6        29.84S
$$

OHZ009>014-019>023-028>033-038-089-202300-
   NORTHEAST OHIO

CITY           SKY/WX    TMP DP  RH WIND       PRES   REMARKS
CLE-HOPKINS    RAIN      53  50  89 SW8       29.85S FOG
CLE-LAKEFRONT  LGT RAIN  56  47  71 SW14      29.82R
CUY CO. ARPT   CLOUDY    57  48  72 SW12      29.82S
LORAIN-ELYRIA  LGT RAIN  52  51  97 W5        29.83S FOG
ASHTABULA      CLOUDY    54  44  69 S8        29.83S
AKRON-CANTON   LGT RAIN  53  46  77 S12       29.85R
WOOSTER        LGT RAIN  53  49  86 SW7       29.85R
MANSFIELD      CLOUDY    53  51  93 SW9       29.84S
YOUNGSTOWN     LGT RAIN  54  43  66 S8        29.84S
$$

OHZ042-051>053-060>062-070>072-077>081-202300-
  SOUTHWEST OHIO

CITY           SKY/WX    TMP DP  RH WIND       PRES   REMARKS
CINC-COVINGTON PTCLDY    64  50  60 SW8       29.86F
CINC-LUNKEN    CLEAR     63  51  65 SW12      29.86F
HAMILTON       MOCLDY    63  53  70 CALM      29.86S
DAYTON         MOCLDY    58  54  86 SW8       29.87R
WRIGHT-PAT AFB MOCLDY    58  54  86 SW7       29.86R
DAYTON GENERAL PTCLDY    58  54  86 S9        29.85S
WILMINGTON     MOCLDY    56  49  77 S7        29.87R
$$

OHZ036-037-039>041-045>050-054>059-063>069-073>076-082>088-202300-
  CENTRAL AND SOUTHEAST OHIO

CITY           SKY/WX    TMP DP  RH WIND       PRES   REMARKS
COLUMBUS       TSTM      54  50  87 S3        29.87S
OSU AIRPORT    LGT RAIN  53  50  89 S8        29.86F
BOLTON FIELD   CLOUDY    54  52  94 S7        29.87S
RICKENBACK AFB RAIN      53  50  89 S8        29.86S
NEWARK         LGT RAIN  53  49  86 CALM      29.88S
MARION         CLOUDY    54  51  90 S8        29.84S
LANCASTER      LGT RAIN  54  50  86 S5        29.88F FOG
ZANESVILLE     CLOUDY    55  44  66 SW7       29.88R
NEW PHILLY     LGT RAIN  52  49  89 SE5       29.87S
$$



USA.gov is the U.S. government's official web portal to all federal, state and local government web resources and services.